Terug naar catalogus

COSMOS 970 DEB

ActiefLEO
NORAD 64997·DEBRIS·🇷🇺 Russia

Gelanceerd Dec 21, 1977 vanaf Baikonur Cosmodrome

Loading…

Volgende Passages (komende 24 uur)

TLE

VersSource: Space-Track

Epoch: Sep 14, 2026, 03:21 UTC

1 64997U 77121DJ  26257.14015099  .00000058  00000-0  14862-3 0  9991
2 64997  65.8152 171.0537 0146006 202.1717 157.2987 13.68416863212421

Volg COSMOS 970 DEB in realtime met AllMySat

Download on the App Store